When you browse on this site, cookies collect data to enhance your experience and personalize the content and advertising you see.
Visit our Privacy Policy to learn more. By continuing to use the site, you agree to this use of cookies and data.
  • In Österreich
  • Länderverzeichnis
  • Für 7 Tage
  • Wassertemperatur
  • Wetterkarte
  • News
  • Widgets
  • user-avatar
    Anmelden

    Stündliche Wetter Bridgetown

    Heute, 29 Februar, Samstag

    Zeit Temperatur Niederschläge Wind Luftdruck Luftfeuchtigkeit
    00:00 +27°C° 0 mm 7 m/S 761 mmHg 76%
    01:00 +27°C° 0 mm 7 m/S 761 mmHg 76%
    02:00 +26°C° 0 mm 7 m/S 761 mmHg 76%
    03:00 +26°C° 0 mm 7 m/S 761 mmHg 76%
    04:00 +26°C° 0 mm 7 m/S 761 mmHg 76%
    05:00 +26°C° 0 mm 7 m/S 761 mmHg 76%
    06:00 +27°C° 0 mm 7 m/S 761 mmHg 74%
    07:00 +27°C° 0 mm 7 m/S 762 mmHg 72%
    08:00 +27°C° 0 mm 7 m/S 763 mmHg 70%
    09:00 +28°C° 0.1 mm 7 m/S 763 mmHg 68%
    10:00 +28°C° 0.1 mm 7 m/S 763 mmHg 66%
    11:00 +29°C° 0.1 mm 7 m/S 764 mmHg 64%
    12:00 +29°C° 0 mm 7 m/S 763 mmHg 63%
    13:00 +29°C° 0 mm 6 m/S 762 mmHg 63%
    14:00 +29°C° 0 mm 6 m/S 761 mmHg 63%
    15:00 +29°C° 0 mm 6 m/S 761 mmHg 65%
    16:00 +28°C° 0 mm 5 m/S 761 mmHg 67%
    17:00 +28°C° 0 mm 5 m/S 761 mmHg 68%
    18:00 +28°C° 0 mm 5 m/S 761 mmHg 70%
    19:00 +27°C° 0 mm 5 m/S 761 mmHg 71%
    20:00 +27°C° 0 mm 5 m/S 762 mmHg 73%
    21:00 +27°C° 0 mm 6 m/S 762 mmHg 73%
    22:00 +27°C° 0 mm 6 m/S 762 mmHg 74%
    23:00 +27°C° 0 mm 6 m/S 762 mmHg 75%

    Morgen, 1 März, Sonntag

    Zeit Temperatur Niederschläge Wind Luftdruck Luftfeuchtigkeit
    00:00 +27°C° 0 mm 6 m/S 761 mmHg 74%
    01:00 +26°C° 0 mm 6 m/S 761 mmHg 74%
    02:00 +26°C° 0 mm 6 m/S 760 mmHg 73%
    03:00 +26°C° 0 mm 5 m/S 760 mmHg 75%
    04:00 +26°C° 0 mm 5 m/S 760 mmHg 78%
    05:00 +26°C° 0 mm 5 m/S 760 mmHg 80%
    06:00 +26°C° 0.1 mm 5 m/S 761 mmHg 78%
    07:00 +27°C° 0.1 mm 5 m/S 761 mmHg 76%
    08:00 +27°C° 0.1 mm 6 m/S 762 mmHg 74%
    09:00 +28°C° 0 mm 5 m/S 762 mmHg 71%
    10:00 +29°C° 0 mm 5 m/S 762 mmHg 69%
    11:00 +29°C° 0 mm 5 m/S 762 mmHg 67%
    12:00 +29°C° 0.3 mm 6 m/S 762 mmHg 70%
    13:00 +28°C° 0.3 mm 6 m/S 761 mmHg 72%
    14:00 +28°C° 0.3 mm 6 m/S 761 mmHg 75%
    15:00 +28°C° 0.4 mm 6 m/S 760 mmHg 75%
    16:00 +28°C° 0.4 mm 6 m/S 760 mmHg 75%
    17:00 +28°C° 0.4 mm 7 m/S 760 mmHg 75%
    18:00 +27°C° 0 mm 6 m/S 760 mmHg 75%
    19:00 +27°C° 0 mm 6 m/S 760 mmHg 76%
    20:00 +27°C° 0 mm 6 m/S 761 mmHg 77%
    21:00 +27°C° 0 mm 7 m/S 761 mmHg 75%
    22:00 +27°C° 0 mm 7 m/S 761 mmHg 73%
    23:00 +27°C° 0 mm 7 m/S 761 mmHg 71%

    übermorgen, 2 März, Montag

    Zeit Temperatur Niederschläge Wind Luftdruck Luftfeuchtigkeit
    00:00 +26°C° 0 mm 7 m/S 761 mmHg 73%
    01:00 +26°C° 0 mm 7 m/S 760 mmHg 75%
    02:00 +26°C° 0 mm 7 m/S 760 mmHg 77%
    03:00 +26°C° 0.1 mm 7 m/S 760 mmHg 76%
    04:00 +26°C° 0.1 mm 7 m/S 760 mmHg 75%
    05:00 +26°C° 0.1 mm 7 m/S 760 mmHg 75%
    06:00 +26°C° 0 mm 7 m/S 760 mmHg 72%
    07:00 +27°C° 0 mm 6 m/S 761 mmHg 70%
    08:00 +27°C° 0 mm 6 m/S 761 mmHg 67%
    09:00 +28°C° 0.1 mm 6 m/S 762 mmHg 67%
    10:00 +28°C° 0.1 mm 6 m/S 762 mmHg 67%
    11:00 +29°C° 0.1 mm 5 m/S 762 mmHg 66%
    12:00 +29°C° 0.1 mm 5 m/S 761 mmHg 66%
    13:00 +29°C° 0.1 mm 6 m/S 761 mmHg 66%
    14:00 +29°C° 0.1 mm 6 m/S 760 mmHg 66%
    15:00 +29°C° 0 mm 6 m/S 760 mmHg 67%
    16:00 +28°C° 0 mm 6 m/S 759 mmHg 67%
    17:00 +28°C° 0 mm 6 m/S 759 mmHg 67%
    18:00 +28°C° 0 mm 6 m/S 759 mmHg 68%
    19:00 +27°C° 0 mm 6 m/S 760 mmHg 69%
    20:00 +27°C° 0 mm 6 m/S 760 mmHg 70%
    21:00 +27°C° 0 mm 6 m/S 760 mmHg 72%
    22:00 +27°C° 0 mm 6 m/S 760 mmHg 74%
    23:00 +27°C° 0 mm 6 m/S 760 mmHg 77%

    3 März, Dienstag

    Zeit Temperatur Niederschläge Wind Luftdruck Luftfeuchtigkeit
    00:00 +27°C° 0.1 mm 6 m/S 760 mmHg 78%
    01:00 +26°C° 0.1 mm 5 m/S 760 mmHg 80%
    02:00 +26°C° 0.1 mm 5 m/S 759 mmHg 81%
    03:00 +26°C° 0.3 mm 6 m/S 759 mmHg 80%
    04:00 +26°C° 0.3 mm 6 m/S 759 mmHg 79%
    05:00 +26°C° 0.3 mm 7 m/S 759 mmHg 79%
    06:00 +27°C° 0.1 mm 7 m/S 760 mmHg 76%
    07:00 +27°C° 0.1 mm 7 m/S 760 mmHg 73%
    08:00 +28°C° 0.1 mm 7 m/S 761 mmHg 70%
    09:00 +28°C° 0 mm 6 m/S 761 mmHg 68%
    10:00 +29°C° 0 mm 6 m/S 761 mmHg 66%
    11:00 +29°C° 0 mm 6 m/S 762 mmHg 64%
    12:00 +29°C° 0 mm 6 m/S 761 mmHg 64%
    13:00 +29°C° 0 mm 6 m/S 760 mmHg 64%
    14:00 +29°C° 0 mm 5 m/S 760 mmHg 64%
    15:00 +29°C° 0 mm 6 m/S 760 mmHg 66%
    16:00 +29°C° 0 mm 6 m/S 760 mmHg 69%
    17:00 +28°C° 0 mm 6 m/S 760 mmHg 71%
    18:00 +28°C° 0 mm 6 m/S 760 mmHg 73%
    19:00 +28°C° 0 mm 7 m/S 760 mmHg 74%
    20:00 +27°C° 0 mm 7 m/S 760 mmHg 75%
    21:00 +27°C° 0 mm 7 m/S 760 mmHg 76%
    22:00 +27°C° 0 mm 7 m/S 760 mmHg 77%
    23:00 +27°C° 0 mm 7 m/S 761 mmHg 78%

    4 März, Mittwoch

    Zeit Temperatur Niederschläge Wind Luftdruck Luftfeuchtigkeit
    00:00 +27°C° 0.2 mm 7 m/S 760 mmHg 78%
    01:00 +27°C° 0.2 mm 7 m/S 760 mmHg 79%
    02:00 +27°C° 0.2 mm 7 m/S 760 mmHg 80%
    03:00 +27°C° 0.1 mm 7 m/S 760 mmHg 80%
    04:00 +27°C° 0.1 mm 7 m/S 760 mmHg 80%
    05:00 +27°C° 0.1 mm 6 m/S 760 mmHg 80%
    06:00 +27°C° 0.1 mm 6 m/S 761 mmHg 78%
    07:00 +28°C° 0.1 mm 7 m/S 761 mmHg 76%
    08:00 +28°C° 0.1 mm 7 m/S 762 mmHg 74%
    09:00 +28°C° 0.1 mm 7 m/S 762 mmHg 73%
    10:00 +29°C° 0.1 mm 7 m/S 762 mmHg 71%
    11:00 +29°C° 0.1 mm 7 m/S 762 mmHg 70%
    12:00 +29°C° 0 mm 7 m/S 762 mmHg 70%
    13:00 +29°C° 0 mm 7 m/S 761 mmHg 70%
    14:00 +29°C° 0 mm 7 m/S 761 mmHg 70%
    15:00 +29°C° 0 mm 7 m/S 761 mmHg 71%
    16:00 +29°C° 0 mm 7 m/S 761 mmHg 71%
    17:00 +28°C° 0 mm 7 m/S 760 mmHg 72%
    18:00 +28°C° 0 mm 7 m/S 761 mmHg 74%
    19:00 +28°C° 0 mm 7 m/S 761 mmHg 76%
    20:00 +27°C° 0 mm 7 m/S 761 mmHg 77%
    21:00 +27°C° 0 mm 7 m/S 761 mmHg 77%
    22:00 +27°C° 0 mm 7 m/S 762 mmHg 77%
    23:00 +27°C° 0 mm 7 m/S 762 mmHg 77%

    5 März, Donnerstag

    Zeit Temperatur Niederschläge Wind Luftdruck Luftfeuchtigkeit
    00:00 +27°C° 0 mm 7 m/S 761 mmHg 77%
    01:00 +27°C° 0 mm 8 m/S 761 mmHg 77%
    02:00 +27°C° 0 mm 8 m/S 760 mmHg 77%
    03:00 +27°C° 0 mm 7 m/S 760 mmHg 77%
    04:00 +27°C° 0 mm 7 m/S 760 mmHg 76%
    05:00 +27°C° 0 mm 7 m/S 761 mmHg 75%
    06:00 +27°C° 0.2 mm 7 m/S 761 mmHg 75%
    07:00 +27°C° 0.2 mm 7 m/S 762 mmHg 75%
    08:00 +27°C° 0.2 mm 7 m/S 762 mmHg 75%
    09:00 +28°C° 0.1 mm 7 m/S 762 mmHg 73%
    10:00 +28°C° 0.1 mm 7 m/S 762 mmHg 70%
    11:00 +29°C° 0.1 mm 8 m/S 763 mmHg 67%
    12:00 +29°C° 0 mm 7 m/S 762 mmHg 67%
    13:00 +29°C° 0 mm 7 m/S 761 mmHg 66%
    14:00 +29°C° 0 mm 6 m/S 761 mmHg 66%
    15:00 +29°C° 0 mm 6 m/S 760 mmHg 68%
    16:00 +29°C° 0 mm 6 m/S 760 mmHg 70%
    17:00 +28°C° 0 mm 6 m/S 760 mmHg 72%
    18:00 +28°C° 0 mm 6 m/S 760 mmHg 75%
    19:00 +27°C° 0 mm 6 m/S 760 mmHg 77%
    20:00 +27°C° 0 mm 6 m/S 761 mmHg 79%
    21:00 +27°C° 0 mm 6 m/S 761 mmHg 78%
    22:00 +27°C° 0 mm 6 m/S 761 mmHg 76%
    23:00 +27°C° 0 mm 6 m/S 761 mmHg 75%
    Mehr zeigen